Weather History for KIOW - February, 2014

Change the Weather History Date:

Thursday, February 20, 2014

  Actual Average Record
Temperature  
Mean Temperature 37 °F 28 °F  
Max Temperature 44 °F 36 °F - ()
Min Temperature 30 °F 20 °F - ()
Degree Days  
Heating Degree Days 28 37  
Month to date heating degree days 1039 799  
Since 1 July heating degree days 5399 4666  
Cooling Degree Days 0 0  
Month to date cooling degree days 0 0  
Year to date cooling degree days 0 0  
Moisture  
Dew Point 34 °F    
Average Humidity 91    
Maximum Humidity 100    
Minimum Humidity 82    
Precipitation  
Precipitation 0.75 in 0.04 in - ()
Month to date precipitation 1.47 0.83  
Year to date precipitation 1.82 1.75  
Sea Level Pressure  
Sea Level Pressure 29.43 in    
Wind  
Wind Speed 16 mph (ESE)    
Max Wind Speed 39 mph    
Max Gust Speed 51 mph    
Visibility 5 miles    
Events Rain , Snow , Thunderstorm    
T = Trace of Precipitation, MM = Missing Value Source: NWS Daily Summary

Daily Weather History Graph

Daily Weather History Graph

Search for Another Location

Airport or City:

Trip Planner

Search our weather history database for the weather conditions in past years. The results will help you decide how hot, cold, wet, or windy it might be!

Date:

Astronomy

Feb. 20, 2014 Rise Set
Actual Time 6:54 AM CST 5:45 PM CST
Civil Twilight 6:26 AM CST 6:14 PM CST
Nautical Twilight 5:53 AM CST 6:46 PM CST
Astronomical Twilight 5:21 AM CST 7:18 PM CST
Moon 11:45 PM CST (2/20) 9:32 AM CST (2/20)
Length of Visible Light 11h 47m
Length of Day
10h 51m
Waning Gibbous, 70% of the Moon is Illuminated
Feb 20
Waning Gibbous
Feb 22
Last Quarter
Mar 1
New
Mar 8
First Quarter
Mar 16
Full

Hourly Weather History & Observations

Time (CST) Temp. Windchill Dew Point Humidity Pressure Visibility Wind Dir Wind Speed Gust Speed Precip Events Conditions
12:52 AM 35.1 °F 30.1 °F 33.1 °F 92% 29.78 in 7.0 mi ESE 5.8 mph - 0.01 in Rain Light Rain
1:52 AM 35.1 °F 31.0 °F 33.1 °F 92% 29.76 in 4.0 mi ESE 4.6 mph - 0.07 in Rain Light Rain
2:52 AM 36.0 °F 29.0 °F 34.0 °F 93% 29.70 in 4.0 mi East 9.2 mph - 0.11 in Rain Light Rain
3:02 AM 35.6 °F 28.6 °F 35.6 °F 100% 29.68 in 4.0 mi East 9.2 mph - 0.00 in Rain Light Rain
3:45 AM 35.6 °F 30.7 °F 35.6 °F 100% 29.65 in 4.0 mi East 5.8 mph - 0.05 in Rain Light Rain
3:52 AM 36.0 °F 29.6 °F 35.1 °F 97% 29.67 in 4.0 mi East 8.1 mph - 0.06 in Rain Light Rain
4:01 AM 35.6 °F 29.2 °F 35.6 °F 100% 29.64 in 4.0 mi East 8.1 mph - 0.00 in Rain Light Rain
4:15 AM 35.6 °F 28.6 °F 33.8 °F 93% 29.63 in 4.0 mi East 9.2 mph - 0.01 in   Overcast
4:52 AM 35.1 °F 28.6 °F 34.0 °F 96% 29.65 in 3.0 mi East 8.1 mph - 0.04 in Rain Light Rain
5:12 AM 35.6 °F 29.9 °F 33.8 °F 93% 29.63 in 2.5 mi East 6.9 mph - 0.04 in Rain Light Rain
5:22 AM 35.6 °F 29.9 °F 33.8 °F 93% 29.62 in 3.0 mi East 6.9 mph - 0.04 in Rain Light Rain
5:52 AM 35.1 °F 28.6 °F 34.0 °F 96% 29.61 in 4.0 mi East 8.1 mph - 0.07 in Rain Light Rain
6:52 AM 35.1 °F 28.6 °F 34.0 °F 96% 29.57 in 4.0 mi ENE 8.1 mph - 0.01 in   Overcast
7:13 AM 35.6 °F 29.2 °F 33.8 °F 93% 29.54 in 2.5 mi East 8.1 mph - N/A   Overcast
7:30 AM 35.6 °F 27.5 °F 33.8 °F 93% 29.54 in 3.0 mi East 11.5 mph - N/A   Overcast
7:52 AM 35.1 °F 27.9 °F 34.0 °F 96% 29.55 in 3.0 mi East 9.2 mph - N/A   Overcast
8:03 AM 35.6 °F 28.0 °F 33.8 °F 93% 29.56 in 2.5 mi East 10.4 mph - N/A   Overcast
8:52 AM 35.1 °F 28.6 °F 35.1 °F 100% 29.55 in 2.5 mi ENE 8.1 mph - N/A   Overcast
9:52 AM 35.1 °F 26.9 °F 34.0 °F 96% 29.49 in 2.5 mi East 11.5 mph 17.3 mph 0.03 in Rain Light Rain
10:10 AM 35.6 °F 27.1 °F 33.8 °F 93% 29.45 in 1.8 mi East 12.7 mph 18.4 mph 0.02 in Rain Light Rain
10:52 AM 35.1 °F 25.9 °F 35.1 °F 100% 29.42 in 2.0 mi East 13.8 mph 18.4 mph 0.03 in   Overcast
11:15 AM 35.6 °F 27.5 °F 35.6 °F 100% 29.37 in 3.0 mi East 11.5 mph 20.7 mph N/A   Overcast
11:52 AM 35.1 °F - 34.0 °F 96% 29.34 in 2.5 mi North - - N/A   Overcast
12:52 PM 36.0 °F 27.5 °F 35.1 °F 97% 29.26 in 1.8 mi East 12.7 mph 20.7 mph 0.01 in Rain , Thunderstorm Light Rain
1:45 PM 37.4 °F 32.8 °F 37.4 °F 100% 29.17 in 2.5 mi ESE 5.8 mph - 0.12 in Rain , Thunderstorm Light Rain
1:52 PM 37.0 °F 31.0 °F 36.0 °F 96% 29.17 in 2.5 mi East 8.1 mph - 0.12 in   Overcast
2:08 PM 37.4 °F 32.1 °F 37.4 °F 100% 29.15 in 1.8 mi ESE 6.9 mph - N/A Thunderstorm Overcast
2:19 PM 37.4 °F 25.0 °F 35.6 °F 93% 29.27 in 1.0 mi WSW 29.9 mph 50.6 mph 0.06 in Rain , Thunderstorm Light Thunderstorms and Rain
2:30 PM 44.6 °F 40.2 °F 41.0 °F 87% 29.15 in 1.2 mi SE 8.1 mph 21.9 mph 0.18 in Rain , Thunderstorm Heavy Thunderstorms and Rain
2:37 PM 42.8 °F 36.2 °F 39.2 °F 87% 29.13 in 3.0 mi ESE 12.7 mph 17.3 mph 0.18 in Rain , Thunderstorm Light Thunderstorms and Rain
2:52 PM 37.9 °F 35.5 °F 37.9 °F 100% 29.17 in 10.0 mi SSE 3.5 mph - 0.18 in   Overcast
3:07 PM 39.2 °F - - N/A% 29.15 in 10.0 mi Calm Calm - N/A   Overcast
3:24 PM 41.0 °F 36.4 °F 41.0 °F 100% 29.14 in 10.0 mi South 6.9 mph - N/A   Overcast
3:52 PM 37.0 °F 30.4 °F 37.0 °F 100% 29.15 in 9.0 mi West 9.2 mph - N/A   Overcast
4:52 PM 35.1 °F 24.5 °F 35.1 °F 100% 29.21 in 9.0 mi WSW 18.4 mph 21.9 mph N/A   Overcast
5:17 PM 35.6 °F 24.5 °F 33.8 °F 93% 29.21 in 2.0 mi West 20.7 mph 28.8 mph 0.01 in   Overcast
5:28 PM 33.8 °F 20.8 °F 33.8 °F 100% 29.22 in 7.0 mi West 26.5 mph 33.4 mph 0.01 in   Overcast
5:52 PM 34.0 °F 21.0 °F 34.0 °F 100% 29.27 in 10.0 mi West 26.5 mph 33.4 mph 0.01 in   Overcast
6:26 PM 35.6 °F 23.0 °F 33.8 °F 93% 29.30 in 10.0 mi West 27.6 mph 42.6 mph 0.00 in   Overcast
6:52 PM 35.1 °F 21.4 °F 34.0 °F 96% 29.35 in 9.0 mi West 32.2 mph 44.9 mph 0.00 in   Overcast
7:52 PM 35.1 °F 21.6 °F 34.0 °F 96% 29.40 in 10.0 mi West 31.1 mph 44.9 mph 0.00 in   Overcast
8:04 PM 35.6 °F 21.9 °F 33.8 °F 93% 29.39 in 10.0 mi West 33.4 mph 48.3 mph N/A   Overcast
8:52 PM 35.1 °F 20.6 °F 30.9 °F 85% 29.44 in 10.0 mi West 36.8 mph 44.9 mph N/A   Overcast
9:52 PM 34.0 °F 20.1 °F 30.0 °F 85% 29.47 in 10.0 mi West 31.1 mph 42.6 mph N/A   Overcast
10:52 PM 33.1 °F 18.7 °F 28.0 °F 82% 29.49 in 4.0 mi West 32.2 mph 42.6 mph 0.00 in Snow Light Snow
11:04 PM 32.0 °F 18.1 °F 28.4 °F 87% 29.48 in 2.0 mi West 27.6 mph 41.4 mph 0.00 in Snow Light Snow
11:40 PM 30.2 °F 15.7 °F 26.6 °F 86% 29.49 in 4.0 mi West 27.6 mph 43.7 mph 0.00 in Snow Light Snow
11:50 PM 30.2 °F 14.5 °F 26.6 °F 86% 29.49 in 1.8 mi West 33.4 mph 43.7 mph 0.00 in Snow Light Snow
11:52 PM 30.9 °F 16.7 °F 26.1 °F 82% 29.51 in 1.8 mi West 27.6 mph 43.7 mph 0.00 in Snow Light Snow